Regional Weather Roundup
Issued by NWS Newport/Morehead, NC

Current Version | Previous Version | Graphics & Text | Print | Product List | Glossary On
Versions: 1 2 3 4 5 6 7 8 9 10 11 12 13 14 15 16 17 18 19 20 21 22 23 24 25 26 27 28 29 30 31 32 33 34 35 36 37 38 39 40 41 42 43 44 45 46 47 48 49 50
000 ASUS42 KMHX 201810 RWRMHX WEATHER ROUNDUP FOR EASTERN NORTH CAROLINA NATIONAL WEATHER SERVICE NEWPORT/MOREHEAD CITY NC 200 PM EDT SAT SEP 20 2014 NOTE: "FAIR" INDICATES FEW OR NO CLOUDS BELOW 12,000 FEET WITH NO SIGNIFICANT WEATHER AND/OR OBSTRUCTIONS TO VISIBILITY NCZ015>017-031-032-045>047-102-103-201900- NORTH COAST CITY SKY/WX TMP DP RH WIND PRES REMARKS EDENTON RAIN 73 70 89 NE6 30.11F ELIZABETH CITY LGT RAIN 73 70 88 NE13 30.12S KITTY HAWK CLOUDY 75 70 84 N10G17 30.09S MANTEO CLOUDY 75 69 83 N14 30.10F $$ NCZ045>047-081-094-103-104-201900- CENTRAL COAST CITY SKY/WX TMP DP RH WIND PRES REMARKS FRISCO CLOUDY 73 72 96 NE7 30.06F SWANQUARTER N/A 75 N/A N/A NE7G15 30.03F $$ NCZ095-097-098-100-101-201900- SOUTHERN COAST CITY SKY/WX TMP DP RH WIND PRES REMARKS BEAUFORT CLOUDY 76 69 79 NE9 30.05F CEDAR ISLAND N/A 75 N/A N/A N15G25 30.12S JACKSONVILLE CLOUDY 76 70 82 N10 30.04F NEWPORT NOT AVBL PINEY ISLAND CLOUDY 77 70 79 NE16 30.05F WILMINGTON CLOUDY 76 68 76 N14G24 30.03F $$ NCZ011>013-027>030-043-044-078>080-089-090>093-098-201900- COASTAL PLAIN CITY SKY/WX TMP DP RH WIND PRES REMARKS AHOSKIE PTSUNNY 78 65 64 N12 30.12F CLINTON CLOUDY 79 65 62 NE9 30.09F ELIZABETHTOWN CLOUDY 77 64 63 N3 30.08F GOLDSBORO PTSUNNY 79 67 64 N9 30.07F GREENVILLE PTSUNNY 79 64 61 NE13 30.10F HAVELOCK CLOUDY 77 70 79 NE15 30.06F KENANSVILLE CLOUDY 78 63 58 N10 30.08F KINSTON CLOUDY 79 64 61 NE14 30.09F NEW BERN CLOUDY 79 69 71 N12 30.08F RICHLANDS CLOUDY 75 66 73 N8G16 30.06F ROANOKE RAPIDS NOT AVBL ROCKY MOUNT PTSUNNY 80 61 52 NE9 30.12F WASHINGTON CLOUDY 76 67 75 N10 30.10F WHITEVILLE CLOUDY 75 64 68 N6 30.06F $$ AMZ130-135-150-152-154-156-158-170-250-252-270-ANZ085-086-088-633-658-670-201900- MARINE OBSERVATIONS STATION/POSITION TIME TEMP WIND PRES WAVE SWELL AIR SEA DIR/SP/G HT/PER HT/PER (UTC) (F) (DEG/KT/KT) (MB) (FT/S) (FT/S) CHESAPEAKE LIGHT 1700 70 60/ 22/ 23 1021.4 BUOY 44014 1800 74 77 30/ 16/ 17 1018.8 8/ 9 5/ 9 DUCK 1800 72 74 30/ 19/ 21 1019.0 2E DUCK 1800 N/A 7/ 9 2/11 OREGON INLET 1800 74 72 10/ 12/ 18 1018.6 BUOY 44095 1800 74 N/A 8/10 2/11 20E OREGON INLET NOT AVBL HATTERAS CG 1800 74 73 30/ 9/ 11 1018.2 DIAMOND BUOY 1800 80 120/ 12/ 16 1017.3 7/10 7/10 CAPE LOOKOUT 1700 73 20/ 14/ 16 1017.7 BEAUFORT LAB 1800 75 75 20/ 12/ 16 1016.9 30 SE NEW RIVER 1800 76 83 30/ 17/ 19 1016.7 6/ 5 3/ 8 5 SE WRIGHTSVILL 1700 72 80 50/ 16/ 19 N/A BUOY 41002 1727 78 82 130/ 23/ 29 1012.8 8/ 7 2/10 BUOY 41004 1800 77 82 70/ 17/ 21 1014.1 7/ 7 3/ 9 $$

USA.gov is the U.S. government's official web portal to all federal, state and local government web resources and services.